THOR ABLESTAR DEB, 172

Orbit data source: Space-Track

THOR ABLESTAR DEB, 172 is space debris in LEO originally from a launch on Thu, 29 Jun 1961 UTC launched from the Air Force Eastern Test Range (AFETR). Debris objects in space refer to the collection of defunct objects orbiting the Earth. Examples of debris include non-operational satellites, rocket bodies, and fragments generated from explosions, collisions, or faulty payload assembly.

Loading next visibility...
Identifier
172, 1961-015AY
Orbit
LEO
Country
Flag of USUS
Related business
Manufacturer
Unknown
Mission
Spacecraft
Bus & Motor
Unknown
Mass
Unknown
Launch date (UTC)
1961-06-29 (65 years ago)
Launch vehicle
Unknown
Launch site
Air Force Eastern Test Range (AFETR)
Object type
Payload
Rocket body
Debris
Shape & HBR
Unknown shape, 0.2 m
Radar Cross Section
Small (<0.1 m²)

Expand to show TLE details & history
Last TLE update: 23 hours ago

TLE from 23 hours ago
0 THOR ABLESTAR DEB
1 00172U 61015AY  26145.22375660  .00000026  00000-0  12175-3 0  9999
2 00172  67.0670 220.7433 0126090  80.5753 280.9540 13.59245856201992
Epoch: 2026-05-25T05:22Z
TLE epoch observation values (Epoch: 2026-05-25T05:22:12.570Z)
Latitude
0.00005°
Longitude
-102.62368°
Altitude
1,023.868 km
Speed
7.348 km/s
True Right ascension
14h 42m 58s
True Declination
0° 00' 00"
Sunlit
Object was in full shadow at epoch
Visualization orbit readout
Latitude
Unknown
Longitude
Unknown
Altitude
Unknown
Speed
Unknown
Apparent Right ascension
Unknown
Apparent Declination
Unknown
Sunlit
N/A
Visualization observer readout
Local Sidereal Time
14:00:32
Azimuth
Unknown
Elevation
Unknown
Doppler factor
Unknown
Orbital elements
Apogee altitude
1,130.317 km
Perigee altitude
943.327 km
Semi-major axis
7,414.959 km
Eccentricity
0.01261
Inclination
67.067°
RAAN
220.7433°
Arg. of periapsis
80.5753°
True anomaly
279.53133°
Mean anomaly
280.954°
Eccentric anomaly
280.24307°
Mean motion
3.39923 °/min
Orbital period
105.91 mins
BSTAR
0.00012175
Loading maneuver chart data...
Computing Atmospheric mass density...

Documentation

Showing up to 5 results
|